#timestamp,LO_Frequency,Hit,StdDev 
1670101215.8,286046999.9,N
1670101235.6,286047000.2,N
1670101255.5,286046999.7,N
1670101275.3,286047000.9,N
1670101295.1,286047000.0,N
1670101315.9,286047000.1,N
1670101335.7,286047002.8,Y
1670101355.5,286047000.1,P
1670101375.4,286047002.8,P
1670101395.2,286047000.1,N
1670101415.1,286047000.0,N
1670101416.0,286047000.0,N
1670101435.8,286047001.0,N
1670101455.6,286047001.1,N
1670101475.5,286046998.2,N
1670101495.3,286046998.6,N
1670101515.1,286046998.4,N
1670101535.9,286046999.4,N
1670101555.7,286046999.6,N
1670101575.6,286046998.3,N
1670101595.4,286046998.3,N
1670101615.2,286046999.1,N
1670101635.1,286046996.6,N
1670101636.0,286046996.6,N
1670101655.8,286046996.5,N
1670101675.7,286046999.3,N
1670101695.5,286046998.8,N
1670101715.3,286046998.5,N
1670101735.2,286047000.0,N
1670101755.9,286047001.0,N
1670101775.7,286047000.4,N
1670101795.6,286047000.2,N
1670101815.4,286046998.3,N
1670101835.2,286047000.5,N
1670101855.1,286047002.7,N
1670101856.0,286047002.7,N
1670101875.8,286047002.7,N
1670101895.7,286047000.7,N
1670101915.5,286047001.0,N
1670101935.3,286047000.3,N
1670101955.2,286047000.0,N
1670101975.0,286047000.1,N
1670101975.9,286047000.1,N
1670101995.8,286047002.8,N
1670102015.6,286047002.8,N
1670102035.4,286047001.1,N
1670102055.3,286047000.9,N
1670102075.1,286047000.6,N
1670102076.0,286047000.6,N
1670102095.8,286047000.7,N
1670102115.7,286047001.0,N
1670102135.5,286047000.2,N
1670102155.3,286047001.9,N
1670102175.2,286047000.0,N
1670102195.0,286047000.1,N
1670102195.9,286047000.1,N
1670102215.8,286047000.1,N
1670102235.6,286046999.7,N
1670102255.4,286047000.1,N
1670102275.3,286047000.2,N
1670102295.1,286047000.3,N
1670102315.9,286046998.1,N
1670102335.7,286047001.1,N
1670102355.5,286047000.6,N
1670102375.4,286047000.0,N
1670102395.2,286047000.1,N
1670102415.0,286047000.2,N
1670102415.9,286047000.2,N
1670102435.8,286047000.1,N
1670102455.6,286047000.3,N
1670102475.5,286047000.9,N
1670102495.3,286047000.6,N
1670102515.1,286047000.3,N
1670102535.9,286047002.4,N
1670102555.7,286047002.0,N
1670102575.5,286047000.1,N
1670102595.4,286047002.5,Y
1670102615.2,286047000.2,P
1670102635.1,286046999.9,N
1670102636.0,286046999.9,N
1670102655.8,286047000.1,N
1670102675.6,286047000.1,N
1670102695.5,286047000.0,N
1670102715.3,286046999.9,N
1670102735.2,286047002.0,Y
1670102755.9,286047001.7,P
1670102775.7,286047001.5,N
1670102795.6,286047002.2,N
1670102815.4,286047002.4,N
1670102835.2,286046999.7,N
1670102855.1,286047000.1,N
1670102856.0,286047000.1,N
1670102875.8,286047001.4,N
1670102895.7,286047001.8,N
1670102915.5,286047001.7,N
1670102935.3,286047004.4,Y
1670102955.2,286047001.6,P
1670102975.0,286047003.5,P
1670102975.9,286047003.5,P
1670102995.8,286047003.2,N
1670103015.6,286047003.5,Y
1670103035.4,286047001.0,P
1670103055.3,286046998.5,N
1670103075.1,286046998.7,N
1670103095.8,286046998.9,N
1670103115.7,286046998.1,N
1670103135.5,286046996.5,N
1670103155.4,286046996.9,N
1670103175.2,286046999.3,N
1670103195.0,286046996.7,N
1670103195.9,286046996.7,N
1670103215.8,286046996.6,N
1670103235.6,286046999.1,N
1670103255.4,286046996.8,N
1670103275.3,286046997.2,N
1670103295.1,286046997.1,N
1670103315.9,286046997.8,N
1670103335.7,286046997.6,N
1670103355.5,286046995.2,Y
1670103375.4,286046999.1,P
1670103395.2,286046999.3,N
1670103415.0,286047001.2,N
1670103415.9,286047001.2,N
1670103435.8,286047001.1,N
1670103455.6,286046998.4,N
1670103475.5,286047001.1,N
1670103495.3,286046998.6,N
1670103515.1,286046997.0,N
1670103535.9,286046999.5,N
1670103555.7,286046999.2,N
1670103575.6,286046999.1,N
1670103595.4,286046999.4,N
1670103615.2,286046999.2,N
1670103635.1,286046999.3,N
1670103636.0,286046999.3,N
1670103655.8,286046999.1,N
1670103675.7,286046998.5,N
1670103695.5,286046998.2,N
1670103715.3,286046998.1,N
1670103735.2,286046998.9,N
1670103755.9,286046998.3,N
1670103775.7,286046998.8,N
1670103795.6,286047001.0,N
1670103815.4,286047000.6,N
1670103835.3,286046998.5,N
1670103855.1,286046998.6,N
1670103856.0,286046998.6,N
1670103875.8,286046998.5,N
1670103895.7,286047001.1,N
1670103915.5,286046998.1,N
1670103935.3,286046998.4,N
1670103955.2,286047001.0,N
1670103975.0,286047001.2,N
1670103975.9,286047001.2,N
1670103995.8,286047000.9,N
1670104015.6,286047000.9,N
1670104035.4,286047002.5,N
1670104055.3,286046999.9,N
1670104075.1,286046999.8,N
1670104095.9,286047001.1,N
1670104115.7,286046998.6,N
1670104135.5,286046998.9,N
1670104155.4,286046999.3,N
1670104175.2,286047000.8,N
1670104195.0,286047000.7,N
1670104195.9,286047000.7,N
1670104215.8,286046998.4,N
1670104235.6,286046999.0,N
1670104255.5,286046998.6,N
1670104275.3,286046998.3,N
1670104295.1,286046999.3,N
1670104315.9,286047001.1,N
1670104335.7,286046996.6,N
1670104355.5,286046996.6,N
1670104375.4,286046999.1,N
1670104395.2,286046999.1,N
1670104415.1,286046999.3,N
1670104416.0,286046999.3,N
1670104435.8,286046998.9,N
1670104455.6,286046996.7,N
1670104475.5,286046996.8,N
1670104495.3,286046997.1,N
1670104515.1,286046998.9,N
1670104535.9,286046997.0,N
1670104555.7,286046999.3,N
1670104575.6,286046996.5,N
1670104595.4,286046998.4,N
1670104615.2,286046998.9,N
1670104635.1,286046999.4,N
1670104636.0,286046999.4,N
1670104655.8,286046999.6,N
1670104675.6,286046999.2,N
1670104695.5,286047000.4,N
1670104715.3,286046998.4,N
1670104735.2,286047001.2,N
1670104755.0,286047000.8,N
1670104755.9,286047000.8,N
1670104775.8,286047000.7,N
1670104795.6,286046998.5,N
